STARLINK-11625, 63109

Orbit data source: Space-Track

STARLINK-11625, 63109 is a payload satellite owned by SpaceX/Seattle (US) in LEO that was launched on Thu, 27 Feb 2025 UTC via an FALCON 9 launch vehicle from the Air Force Eastern Test Range (AFETR). Payload-class satellites include a variety of spacecraft equipped with specific instruments for various scientific and technological missions. These include communications satellites like Starlink; space stations such as the ISS; scientific satellites like the Hubble; Earth observation satellites from companies like Planet Labs, Umbra, and HawkEye 360; GPS; miniature CubeSats for education and research; and military/defense satellites.

Loading next visibility...
Identifier
63109, 2025-039F
Orbit
LEO
Last TLE update
20 hours ago
Origin
Manufacturer
SpaceX/Seattle
Mission
Operational Commercial Communications
Bus & Motor
STARLINK V2M, Unknown motor
Mass
730 kg wet, ~700 kg dry
Launch date (UTC)
2025-02-27 (2 months ago)
Launch vehicle
FALCON 9
Launch site
Air Force Eastern Test Range (AFETR)
Object type
Payload
Rocket body
Debris
Shape & HBR
Box + 2 Pan, 29 m
Radar Cross Section
36.964 m², Large (>1 m²)

Expand to show TLE details & history

TLE from 20 hours ago
0 STARLINK-11625
1 63109U 25039F   25128.46560900  .00002492  00000-0  17177-4 0  9990
2 63109  43.0022 278.2513 0002719 275.2722  84.7837 15.77868809 11598
Epoch: 2025-05-08T11:10Z
Definitive object data (Epoch: 2025-05-08T11:10:28.617Z)
Latitude
-0.00009°
Longitude
-115.90374°
Altitude
336.085 km
Speed
7.709 km/s
True Right ascension
18h 33m 00s
True Declination
0° 00' 00"
Sunlit
Object was in full shadow at TLE epoch
Visualization TLE readout
Latitude
15.39362°
Longitude
-103.87088°
Altitude
335.904 km
Speed
7.71 km/s
Apparent Right ascension
22h 24m 25s
Apparent Declination
-20° 44' 27"
Sunlit
Object is in full shadow
Visualization observer readout
Local Sidereal Time
15:10:07
Azimuth
95.187° ESE
Elevation
-27.112°
Doppler factor
1
Orbital elements
Apogee altitude
340.293 km
Perigee altitude
336.641 km
Semi-major axis
6,716.604 km
Eccentricity
0.0002719
Inclination
43.0022°
RAAN
278.2513°
Arg. of periapsis
275.2722°
True anomaly
84.81473°
Mean anomaly
84.7837°
Eccentric anomaly
84.79921°
Mean motion
3.94293 °/min
BSTAR
0.000017177
Orbital period
91.3 mins
Loading maneuver chart data...
Loading SW <> Apogee altitude chart data...
Loading historical data...
Loading historical data...
Loading historical data...
Loading historical data...
Loading historical data...
Loading historical data...
Loading historical data...

STARLINK-11625 Visibility forecast

Observer location: undefined°, undefined°

Span
Click to sort rows by Start time (UTC) header in descending order
Start Az.
Max El. time (UTC)
Max El. Az.
Max El.
End time (UTC)
End Az.
4 mins2025-05-09 13:13:11.732Z215.368° SW2025-05-09 13:15:11.732Z156.424° SSE29.463°2025-05-09 13:17:11.732Z91.248° ESE
4 mins2025-05-09 14:49:11.732Z275.937° WNW2025-05-09 14:51:11.732Z20.595° NNE37.529°2025-05-09 14:53:11.732Z66.292° ENE
4 mins2025-05-09 16:25:11.732Z301.435° NW2025-05-09 16:27:11.732Z36.403° NE32.934°2025-05-09 16:29:11.732Z79.509° E
4 mins2025-05-09 18:01:11.732Z273.878° WNW2025-05-09 18:02:11.732Z236.233° WSW39.334°2025-05-09 18:05:11.732Z122.368° SE
|